Regional Weather Roundup
Issued by NWS

Home | Current Version | Previous Version | Text Only | Print | Product List | Glossary On
Versions: 1 2 3 4 5 6 7 8 9 10 11 12 13 14 15 16 17 18 19 20 21 22 23 24 25 26 27 28 29 30 31 32 33 34 35 36 37 38 39 40 41 42 43 44 45 46 47 48 49 50
000
ASUS43 KFSD 221810
RWRSD

WEATHER ROUNDUP FOR SOUTH DAKOTA
NATIONAL WEATHER SERVICE SIOUX FALLS SD
100 PM CDT TUE AUG 22 2017

NOTE: "FAIR" INDICATES FEW OR NO CLOUDS BELOW 12,000 FEET WITH NO
SIGNIFICANT WEATHER AND/OR OBSTRUCTIONS TO VISIBILITY.


SDZ001>005-009-010-012>017-221900-
NORTHWEST AND NORTH CENTRAL SOUTH DAKOTA

CITY           SKY/WX    TMP DP  RH WIND       PRES   REMARKS
BUFFALO          N/A     78  41  26 S9        30.14F
FAITH            N/A     76  42  29 SE7       30.21F
MOBRIDGE       SUNNY     74  45  35 VRB5      30.19F
$$

SDZ012>016-024>037-041>051-057-063-072>074-221900-
SOUTHWEST AND SOUTH CENTRAL SOUTH DAKOTA

CITY           SKY/WX    TMP DP  RH WIND       PRES   REMARKS
RAPID CTY ARPT SUNNY     79  44  28 S15       30.21F
PIERRE         SUNNY     73  42  32 NW3       30.21F
CUSTER         SUNNY     70  42  36 SW9       30.33F
ELLSWORTH AFB  SUNNY     79  44  29 S13       30.20F
PHILIP         SUNNY     81  43  26 S8        30.21F
SPEARFISH      LGT RAIN  75  41  29 E13       30.24F
WINNER         FAIR      75  47  36 W3        30.24F
$$

SDZ004>011-016>023-039-040-221900-
NORTHEAST SOUTH DAKOTA

CITY           SKY/WX    TMP DP  RH WIND       PRES   REMARKS
ABERDEEN       SUNNY     75  40  28 N15G24    30.17F
WATERTOWN      SUNNY     70  46  42 NW16G22   30.17S
BROOKINGS      SUNNY     69  47  45 NW14      30.18F
SISSETON         N/A     73  48  41 NW17      30.13S
$$

SDZ017-020-022-023-036>040-048>070-221900-
SOUTHEAST SOUTH DAKOTA

CITY           SKY/WX    TMP DP  RH WIND       PRES   REMARKS
SIOUX FALLS    MOSUNNY   73  51  46 N15       30.18F
HURON          SUNNY     74  48  39 NW10      30.19F
CHAMBERLAIN    SUNNY     74  48  39 S5        30.22F
MITCHELL       SUNNY     75  44  33 NW10G17   30.20F
YANKTON        SUNNY     72  47  40 NW9G18    30.21F
$$

ABBREVIATIONS USED IN REMARKS
   TC - TEMPERATURE IN CELSIUS
  WCI - WIND CHILL INDEX
   HX - HEAT INDEX
  VSB - VISIBILITY





USA.gov is the U.S. government's official web portal to all federal, state and local government web resources and services.